Ellensburg, WA
on Friday, November 16, 2012

Friday
Previous Day Next Day
Daily Summary
 ActualAverage (KYKM)Record (KYKM)
Temperature
Mean Temperature °F / °C 37°F / 3°C  
Max Temperature 42°F / 6°C 48°F / 9°C 63°F / 17°C (1949)
Min Temperature 39°F / 4°C 27°F / -3°C 8°F / -13°C (2014)
Degree Days
Heating Degree Days 24 28  
Month to date heating degree days 400  
Since 1 July heating degree days 1104  
Cooling Degree Days 0 0  
Month to date cooling degree days 0  
Year to date cooling degree days 472  
Moisture
Dew Point 35°F / 2°C   
Average Humidity 81    
Maximum Humidity 87    
Minimum Humidity 70    
Precipitation
Precipitation 0.00 in / 0.00 cm 0.04 in / 1.02 cm 0.30 in / 0.76 cm (1981)
Month to date precipitation 0.51  
Year to date precipitation 6.18  
Snow
Snow 0.00 in / 0.00 cm 0.10 in / 0.25 cm 1.70 in / 4.32 cm (2011)
Month to date snowfall 0.9  
Year to date snowfall 9.6  
Since 1 July snowfall 1.0  
Snow Depth in / cm   
Wind
Wind Speed 1 mph / 2 km/h   
Max Wind Speed 7 mph / 11 km/h   
Max Gust Speed mph / km/h   
Visibility 7 miles / 11 kilometers   
Events     

Key: T is trace of precipitation, MM is missing value
Source: NWS Daily Summary
Time(PST)TemperatureDew PointHumidity Pressure Visibility Wind DirectionWind SpeedGust SpeedPrecipitationEvents Conditions
12:04 AM 39.2°F / 4.0°C 33.8°F / 1.0°C 81% 29.98 in / 1015.1 hPa 9.0 miles / 14.5 kilometers Calm Calm - N/A   Overcast
12:48 AM 39.2°F / 4.0°C 33.8°F / 1.0°C 81% 29.97 in / 1014.8 hPa 8.0 miles / 12.9 kilometers Calm Calm - N/A   Overcast
12:53 AM 39.0°F / 3.9°C 34.0°F / 1.1°C 82% 30.01 in / 1016.0 hPa 8.0 miles / 12.9 kilometers Calm Calm - N/A   Overcast
1:31 AM 39.2°F / 4.0°C 33.8°F / 1.0°C 81% 29.97 in / 1014.8 hPa 8.0 miles / 12.9 kilometers Calm Calm - N/A   Overcast
1:53 AM 39.0°F / 3.9°C 34.0°F / 1.1°C 82% 30.01 in / 1016.0 hPa 8.0 miles / 12.9 kilometers Calm Calm - N/A   Overcast
2:01 AM 39.2°F / 4.0°C 33.8°F / 1.0°C 81% 29.97 in / 1014.8 hPa 8.0 miles / 12.9 kilometers Calm Calm - N/A   Overcast
2:10 AM 39.2°F / 4.0°C 33.8°F / 1.0°C 81% 29.97 in / 1014.8 hPa 8.0 miles / 12.9 kilometers Calm Calm - N/A   Overcast
2:16 AM 39.2°F / 4.0°C 33.8°F / 1.0°C 81% 29.97 in / 1014.8 hPa 7.0 miles / 11.3 kilometers Calm Calm - N/A   Overcast
2:53 AM 39.0°F / 3.9°C 35.1°F / 1.7°C 86% 30.00 in / 1015.7 hPa 7.0 miles / 11.3 kilometers Calm Calm - N/A   Overcast
3:53 AM 39.0°F / 3.9°C 34.0°F / 1.1°C 82% 29.98 in / 1015.1 hPa 7.0 miles / 11.3 kilometers Calm Calm - N/A   Overcast
4:27 AM 39.2°F / 4.0°C 33.8°F / 1.0°C 81% 29.95 in / 1014.1 hPa 7.0 miles / 11.3 kilometers Calm Calm - N/A   Overcast
4:53 AM 39.0°F / 3.9°C 34.0°F / 1.1°C 82% 29.98 in / 1015.1 hPa 7.0 miles / 11.3 kilometers Calm Calm - N/A   Overcast
5:45 AM 39.2°F / 4.0°C 35.6°F / 2.0°C 87% 29.95 in / 1014.1 hPa 5.0 miles / 8.0 kilometers Calm Calm - N/A   Overcast
5:53 AM 39.0°F / 3.9°C 35.1°F / 1.7°C 86% 29.98 in / 1015.0 hPa 5.0 miles / 8.0 kilometers Calm Calm - N/A   Overcast
6:00 AM 39.2°F / 4.0°C 35.6°F / 2.0°C 87% 29.94 in / 1013.8 hPa 5.0 miles / 8.0 kilometers Calm Calm - N/A   Overcast
6:09 AM 39.2°F / 4.0°C 35.6°F / 2.0°C 87% 29.94 in / 1013.8 hPa 5.0 miles / 8.0 kilometers Calm Calm - N/A   Overcast
6:53 AM 39.0°F / 3.9°C 35.1°F / 1.7°C 86% 29.98 in / 1015.1 hPa 5.0 miles / 8.0 kilometers Calm Calm - N/A   Overcast
7:53 AM 39.0°F / 3.9°C 35.1°F / 1.7°C 86% 29.99 in / 1015.4 hPa 7.0 miles / 11.3 kilometers Calm Calm - N/A   Overcast
8:53 AM 39.0°F / 3.9°C 35.1°F / 1.7°C 86% 30.00 in / 1015.9 hPa 5.0 miles / 8.0 kilometers Calm Calm - N/A   Overcast
9:05 AM 39.2°F / 4.0°C 35.6°F / 2.0°C 87% 29.97 in / 1014.8 hPa 5.0 miles / 8.0 kilometers Calm Calm - N/A   Overcast
9:53 AM 39.9°F / 4.4°C 35.1°F / 1.7°C 83% 30.01 in / 1016.1 hPa 7.0 miles / 11.3 kilometers Calm Calm - N/A   Overcast
10:53 AM 41.0°F / 5.0°C 34.0°F / 1.1°C 76% 29.99 in / 1015.6 hPa 9.0 miles / 14.5 kilometers Calm Calm - N/A   Overcast
11:53 AM 42.1°F / 5.6°C 34.0°F / 1.1°C 73% 29.98 in / 1015.1 hPa 10.0 miles / 16.1 kilometers Calm Calm - N/A   Overcast
12:22 PM 42.8°F / 6.0°C 33.8°F / 1.0°C 70% 29.94 in / 1013.8 hPa 10.0 miles / 16.1 kilometers Calm Calm - N/A   Overcast
12:53 PM 42.1°F / 5.6°C 34.0°F / 1.1°C 73% 29.96 in / 1014.6 hPa 10.0 miles / 16.1 kilometers Calm Calm - N/A   Overcast
1:53 PM 42.1°F / 5.6°C 34.0°F / 1.1°C 73% 29.96 in / 1014.3 hPa 10.0 miles / 16.1 kilometers Calm Calm - N/A   Overcast
2:53 PM 42.1°F / 5.6°C 34.0°F / 1.1°C 73% 29.95 in / 1014.0 hPa 10.0 miles / 16.1 kilometers Calm Calm - N/A   Overcast
3:53 PM 42.1°F / 5.6°C 33.1°F / 0.6°C 70% 29.95 in / 1014.2 hPa 10.0 miles / 16.1 kilometers Calm Calm - N/A   Overcast
4:23 PM 42.8°F / 6.0°C 33.8°F / 1.0°C 70% 29.92 in / 1013.1 hPa 10.0 miles / 16.1 kilometers Calm Calm - N/A   Overcast
4:53 PM 42.1°F / 5.6°C 34.0°F / 1.1°C 73% 29.95 in / 1014.1 hPa 10.0 miles / 16.1 kilometers Calm Calm - N/A   Overcast
5:53 PM 41.0°F / 5.0°C 36.0°F / 2.2°C 82% 29.95 in / 1014.1 hPa 5.0 miles / 8.0 kilometers ESE 4.6 mph / 7.4 km/h - N/A   Haze
6:53 PM 41.0°F / 5.0°C 36.0°F / 2.2°C 82% 29.94 in / 1013.8 hPa 5.0 miles / 8.0 kilometers ESE 5.8 mph / 9.3 km/h - N/A   Haze
7:53 PM 41.0°F / 5.0°C 36.0°F / 2.2°C 82% 29.94 in / 1013.6 hPa 5.0 miles / 8.0 kilometers ESE 6.9 mph / 11.1 km/h - N/A   Haze
8:17 PM 41.0°F / 5.0°C 35.6°F / 2.0°C 81% 29.91 in / 1012.8 hPa 5.0 miles / 8.0 kilometers ESE 5.8 mph / 9.3 km/h - N/A   Haze
8:43 PM 41.0°F / 5.0°C 35.6°F / 2.0°C 81% 29.91 in / 1012.8 hPa 5.0 miles / 8.0 kilometers ESE 4.6 mph / 7.4 km/h - N/A   Haze
8:53 PM 41.0°F / 5.0°C 36.0°F / 2.2°C 82% 29.94 in / 1013.9 hPa 5.0 miles / 8.0 kilometers ESE 6.9 mph / 11.1 km/h - N/A   Haze
9:53 PM 41.0°F / 5.0°C 36.0°F / 2.2°C 82% 29.94 in / 1013.7 hPa 6.0 miles / 9.7 kilometers East 4.6 mph / 7.4 km/h - N/A   Haze
10:16 PM 41.0°F / 5.0°C 35.6°F / 2.0°C 81% 29.90 in / 1012.4 hPa 6.0 miles / 9.7 kilometers ESE 5.8 mph / 9.3 km/h - N/A   Haze
10:53 PM 39.9°F / 4.4°C 36.0°F / 2.2°C 86% 29.92 in / 1013.0 hPa 6.0 miles / 9.7 kilometers SE 4.6 mph / 7.4 km/h - N/A   Overcast
11:07 PM 39.2°F / 4.0°C 35.6°F / 2.0°C 87% 29.88 in / 1011.7 hPa 6.0 miles / 9.7 kilometers SSE 4.6 mph / 7.4 km/h - N/A   Overcast
11:45 PM 39.2°F / 4.0°C 35.6°F / 2.0°C 87% 29.88 in / 1011.7 hPa 6.0 miles / 9.7 kilometers Calm Calm - N/A   Mostly Cloudy
11:53 PM 39.9°F / 4.4°C 35.1°F / 1.7°C 83% 29.91 in / 1012.6 hPa 6.0 miles / 9.7 kilometers NNE 4.6 mph / 7.4 km/h - N/A   Haze
Moon Phase
Nov. 16 Nov. 20 Nov. 28 Dec. 06 Dec. 13
Sunrise:07:07 AM (PST) Moon Rise:10:10 AM (PST)11/16
Sunset:04:25 PM (PST) Moon Set:07:28 PM (PST)11/16

Copyright © 2014 The Weather Underground, Inc.